Regional Weather Roundup
Issued by NWS Grand Forks, ND

Home | Current Version | Previous Version | Graphics & Text | Print | Product List | Glossary On
Versions: 1 2 3 4 5 6 7 8 9 10 11 12 13 14 15 16 17 18 19 20 21 22 23 24 25 26 27 28 29 30 31 32 33 34 35 36 37 38 39 40 41 42 43 44 45 46 47 48 49 50
691
ASUS43 KFGF 270131
RWRFGF
PRAIRIE TO PINES  WEATHER ROUNDUP
NATIONAL WEATHER SERVICE EASTERN NORTH DAKOTA/GRAND FORKS ND
800 PM CDT MON SEP 26 2016

 **SATELLITE DATA USED TO AUGMENT SKY COVER AT AUTOMATED STATIONS**
 *****  WEATHER ACROSS EASTERN NORTH DAKOTA  *****

CITY           SKY/WX    TMP DP  RH WIND       PRES   REMARKS
GRAND FORKS    CLEAR     55  37  50 NW10      29.92S
GRAND FRKS AFB CLEAR     53  35  50 NW7       29.93S
DEVILS LAKE    CLEAR     54  34  46 NW10      29.99
FARGO          CLEAR     57  29  34 W8        29.94R
WAHPETON ARPT  CLEAR     52  30  43 NW9       29.96S
$$

 ***** WEATHER ACROSS CENTRAL AND WESTERN NORTH DAKOTA  *****

CITY           SKY/WX    TMP DP  RH WIND       PRES   REMARKS
BISMARCK       CLEAR     60  36  40 NW9       30.08F
MINOT          CLEAR     57  37  47 W10       30.05F
JAMESTOWN      CLEAR     54  36  50 NW10      30.00S
MINOT AFB      CLEAR     52  38  59 NW8       30.04F
GARRISON         N/A     52  37  56 W3        30.07F
WILLISTON      CLOUDY    58  42  55 W6        30.09F
DICKINSON      CLOUDY    55  39  54 W3        30.12F
HETTINGER      CLOUDY    54  39  57 NW6       30.16F
$$

 *****  OTHER AIRPORT OBSERVATIONS IN OUR AREA  *****

CITY           SKY/WX    TMP DP  RH WIND       PRES   REMARKS
WALHALLA       FAIR      50  46  87 N5        29.95S
GRAFTON AIRPOR FAIR      52  46  82 N7        29.95S
VALLEY CITY AR FAIR      54  34  47 NW10      30.00S
CANDO          FAIR      48  34  57 NW10      30.02R
CAVALIER APRT  FAIR      52  45  76 N5        29.94S
GWINNER        FAIR      57  34  41 W9        30.01R
SHEYENNE NWR     N/A     59  30  33 NW7       29.95
ROLLA          FAIR      52  30  43 NW12      30.01S
 ***** THE ABOVE OBSERVATIONS ARE NON NWS ARE NOT QUALITY
       CONTROLLED AND MAY MIS-REPORT RAIN FOR SNOW...
$$

  *****  WEATHER ACROSS NORTHERN MINNESOTA  *****

CITY           SKY/WX    TMP DP  RH WIND       PRES   REMARKS
FLAG ISLAND    CLOUDY    52  46  82 NW22      29.78S
WARROAD        CLOUDY    52  45  76 NW17G29   29.84R
ROSEAU         CLOUDY    52  45  76 NW14G21   29.86S
HALLOCK        CLEAR     52  46  82 NW8       29.92S
THF RVR FALLS  CLEAR     50  43  77 NW10      29.92S
BAUDETTE       CLOUDY    53  44  71 NW18G29   29.78S
WASKISH        CLOUDY    54  46  76 W20G28    29.81S
CROOKSTON      CLEAR     52  46  82 N6        29.93
STEPHEN NDAWN    N/A     52  46  82 N7          N/A
GREENBUSH NDAW   N/A     48  43  81 NW12        N/A
$$
  *****  WEATHER ACROSS CENTRAL AND WEST MINNESOTA  *****

CITY           SKY/WX    TMP DP  RH WIND       PRES   REMARKS
FOSSTON        CLEAR     48  41  76 NW7       29.91F
BEMIDJI        PTCLDY    51  40  67 NW21G29   29.87S
PARK RAPIDS    MOCLDY    56  39  53 NW15G23   29.88S
ELBOW LAKE     FAIR      54  32  43 NW9       29.95R
WADENA         CLEAR     52  39  62 NW6       29.90R
DETROIT LAKES  CLEAR     52  41  66 NW8       29.93S
MOORHEAD       CLEAR     57  28  33 NW10      29.95S
FERGUS FALLS   CLEAR     52  34  50 NW9       29.96R
MORRIS MN      CLEAR     55  34  44 W8        29.95R
STAPLES        CLEAR     52  39  62 NW9       29.89S
$$
  *****  WEATHER ELSEWHERE ACROSS MINNESOTA  *****

CITY           SKY/WX    TMP DP  RH WIND       PRES   REMARKS
DULUTH         LGT RAIN  52  44  74 W18G28    29.73S
INTRNTL FALLS  LGT RAIN  50  47  89 W18G28    29.71S
ELY            RAIN      48  46  93 W15G21    29.64F
CLOQUET        CLOUDY    54  39  58 W14G25    29.76S
WHEATON        CLEAR     61  36  39 NW10      29.98R
BRAINERD       CLOUDY    57  40  52 NW15G24   29.86S
HIBBING        LGT RAIN  48  45  89 W14G22    29.75R
ALEXANDRIA     CLEAR     58  32  37 NW15      29.93S
SAINT CLOUD    CLEAR     52  40  63 W6        29.88S
MINNEAPOLIS    CLEAR     59  34  39 W9        29.88S
$$

  *****  WEATHER ACROSS SOUTH DAKOTA  *****

CITY           SKY/WX    TMP DP  RH WIND       PRES   REMARKS
SIOUX FALLS    PTCLDY    58  39  49 W5        30.04R
BROOKINGS      CLEAR     53  35  50 NW10      30.02S
WATERTOWN      CLEAR     59  36  42 NW9       30.02S
HURON          CLEAR     54  33  45 NW7       30.05S
SISSETON         N/A     58  33  39 NW13      29.97R
ABERDEEN       CLEAR     59  34  39 NW10      30.04S
MITCHELL       CLEAR     58  36  43 NW8       30.06S
PIERRE         CLEAR     61  38  42 N8        30.09R
MOBRIDGE       CLEAR     61  36  39 NW9       30.08S
RAPID CITY     CLEAR     61  40  45 N14       30.19S
$$

  *****  SOME WEATHER IN NEARBY STATES *****

CITY           SKY/WX    TMP DP  RH WIND       PRES   REMARKS
GLASGOW MT     CLEAR     66  45  46 W5        30.09F
GREAT FALLS MT CLEAR     67  42  40 SW12      30.11F
CHEYENNE WY    CLEAR     63  38  39 NE7       30.35R
SCOTTSBLUFF NE CLEAR     63  44  50 N7        30.24S
OMAHA NE       CLEAR     66  49  54 CALM      30.06R
DES MOINES IA  CLEAR     64  42  44 W6        30.02S
DAVENPORT IA   CLEAR     60  37  42 SW7       29.98S
CHICAGO IL     CLEAR     62  34  35 W10       29.93S
EAU CLAIRE WI  CLEAR     55  39  54 W8        29.83S
LA CROSSE WI   CLEAR     62  36  37 W10       29.87S
$$

  *****  SOME NATIONAL WEATHER *****

CITY           SKY/WX    TMP DP  RH WIND       PRES   REMARKS
LA GUARDIA NY  CLOUDY    70  54  56 S10G21    30.05R
RALEIGH NC     MOCLDY    72  67  84 VRB5      30.05S
ATLANTA GA     MOCLDY    79  65  62 NW8       30.03R
NEW ORLEANS LA MOCLDY    83  72  69 CALM      29.97R
OKLAHOMA CITY  MOCLDY    68  38  33 N8        30.18R
ALBUQUERQUE NM MOCLDY    68  28  22 E13       30.31R
SALT LAKE CITY PTCLDY    68  48  48 W8        30.26F
LOS ANGELES CA MOCLDY    87  46  24 SW12      29.83S
BOISE ID       FAIR      82  39  21 S5        30.13F
SEATTLE WA     PTCLDY    75  55  49 NW5       30.02F
$$

*** WEATHER ACROSS MANITOBA...SASKATCHEWAN AND ONTARIO ***
                ***ONTARIO***

CITY           SKY/WX    TMP DP  RH WIND       PRES   REMARKS
GERALDTON      MOCLDY    52  50  93 CALM      29.36S
THUNDER BAY    LGT RAIN  52  48  87 W14G21    29.45S
SIOUX LOOKOUT  LGT RAIN  46  46 100 NW15G25   29.55R FOG
TORONTO        PTCLDY    57  54  88 SW10      29.86R
BIG TROUT LK   RAIN      50  48  93 N9        29.50S
PICKLE LAKE    LGT RAIN  50  50 100 NW9G23    29.44R FOG
DRYDEN         LGT RAIN  48  48 100 NW13G23   29.61S
KENORA         LGT RAIN  48  48 100 NW10G20   29.73R FOG
$$
                *** MANITOBA***

CITY           SKY/WX    TMP DP  RH WIND       PRES   REMARKS
BRANDON        PTCLDY    52  32  46 NW13      29.99R
DAUPHIN        CLEAR     48  36  61 NW6       29.98S
ISLAND LAKE    LGT RAIN  50  48  93 NW15G36   29.77R
PILOT MOUND      N/A     52  32  46 NW14G20     N/A
THE PAS        PTCLDY    54  41  62 N12       30.00R
THOMPSON       CLOUDY    48  41  76 NW7       29.93R
WINNIPEG       PTCLDY    52  43  71 N16       29.92S
LYNN LAKE      CLEAR     43  39  87 N3        30.00S
CHURCHILL      LGT RAIN  45  43  93 N25G32    29.84R
GILLAM         CLOUDY    48  43  81 N21G32    29.82R
$$
                ***SASKATCHEWAN***

CITY           SKY/WX    TMP DP  RH WIND       PRES   REMARKS
ESTEVAN        PTCLDY    52  39  62 NW6       30.07F
KINDERSLEY     PTCLDY    59  43  55 SE9       29.99F
LLOYDMINSTER   PTCLDY    63  43  48 S10       29.93F
PRINCE ALBERT  PTCLDY    57  41  54 S3        30.01F
REGINA         PTCLDY    59  37  44 VRB2      30.08S
YORKTON        CLEAR     52  37  58 W8        30.04S
N. BATTLEFORD  CLEAR     57  41  54 SE8       30.00F
LA RONGE       PTCLDY    54  41  62 VRB2      30.01
SASKATOON      PTCLDY    59  39  47 S6        30.04F
SWIFT CURRENT  CLEAR     59  43  55 SE9       30.04F
$$
NOTE: THESE ARE AUTOMATED STATIONS WITH LIMITED QUALITY CONTROL
      "FAIR" INDICATES FEW OR NO CLOUDS BELOW 12,000 FEET WITH NO
      SIGNIFICANT WEATHER AND/OR OBSTRUCTIONS TO VISIBILITY.
      SKY/WX - SKY CONDITION AND SIGNIFICANT WEATHER.
      TMP - AIR TEMPERATURE.    DP   - DEWPOINT TEMPERATURE.
      RH  - RELATIVE HUMIDITY.  PRES - PRESSURE.
      HX  - HEAT INDEX.         WCI  - WIND CHILL INDEX.
$




USA.gov is the U.S. government's official web portal to all federal, state and local government web resources and services.